QPF
0.00 0.00 0.00 0.00 0.00 0.00 0.00 0.00 0.00 0.00 0.00 0.00 0.00 0.00 0.00 0.00 0.00 0.00 0.00 0.00 0.00 0.00 0.00 0.00 0.00 0.00 0.00 0.00 0.00 0.00 0.00 0.00 0.00 0.00 0.00 0.00 0.00 0.00 0.00 0.00 0.00 0.00 0.00 0.00 0.00
0.00 0.00 0.00 0.00 0.00 0.00 0.00 0.00 0.00 0.00 0.00 0.00 0.00 0.00 0.00 0.00 0.00 0.00 0.00 0.00 0.00 0.00 0.00 0.00 0.00 0.00 0.00 0.00 0.00 0.00 0.00 0.00 0.00 0.00 0.00 0.00 0.00 0.00 0.00 0.00 0.00 0.00 0.00 0.00 0.00
0.00 0.00 0.00 0.00 0.00 0.00 0.00 0.00 0.00 0.00 0.00 0.00 0.00 0.00 0.00 0.00 0.00 0.00 0.00 0.00 0.00 0.00 0.00 0.00 0.00 0.00 0.00 0.00 0.00 0.00 0.00 0.00 0.00 0.00 0.00 0.00 0.00 0.00 0.00 0.00 0.00 0.00 0.00 0.00 0.00
0.00 0.00 0.00 0.00 0.00 0.00 0.00 0.00 0.00 0.00 0.00 0.00 0.00 0.00 0.00 0.00 0.00 0.00 0.00 0.00 0.00 0.00 0.00 0.00 0.00 0.00 0.00 0.00 0.00 0.00 0.00 0.00 0.00 0.00 0.00 0.00 0.00 0.00 0.00 0.00 0.00 0.00 0.00 0.00 0.00
0.00 0.00 0.00 0.00 0.00 0.00 0.00 0.00 0.00 0.00 0.00 0.00 0.00 0.00 0.00 0.00 0.00 0.00 0.00 0.00 0.00 0.00 0.00 0.00 0.00 0.00 0.00 0.00 0.00 0.00 0.00 0.00 0.00 0.00 0.00 0.00 0.00 0.00 0.00 0.00 0.00 0.00 0.00 0.00 0.00
0.00 0.00 0.00 0.00 0.00 0.00 0.00 0.00 0.00 0.00 0.00 0.00 0.00 0.00 0.00 0.00 0.00 0.00 0.00 0.00 0.00 0.00 0.00 0.00 0.00 0.00 0.00 0.00 0.00 0.00 0.00 0.00 0.00 0.00 0.00 0.00 0.00 0.00 0.00 0.00 0.00 0.00 0.00 0.00 0.00
0.00 0.00 0.00 0.00 0.00 0.00 0.00 0.00 0.00 0.00 0.00 0.00 0.00 0.00 0.00 0.00 0.00 0.00 0.00 0.00 0.00 0.00 0.00 0.00 0.00 0.00 0.00 0.00 0.00 0.00 0.00 0.00 0.00 0.00 0.00 0.00 0.00 0.00 0.00 0.00 0.00 0.00 0.00 0.00 0.00
0.00 0.00 0.00 0.00 0.00 0.00 0.00 0.00 0.00 0.00 0.00 0.00 0.00 0.00 0.00 0.00 0.00 0.00 0.00 0.00 0.00 0.00 0.00 0.00 0.00 0.00 0.00 0.00 0.00 0.00 0.00 0.00 0.00 0.00 0.00 0.00 0.00 0.00 0.00 0.00 0.00 0.00 0.00 0.00 0.00
0.00 0.00 0.00 0.00 0.00 0.00 0.00 0.00 0.00 0.00 0.00 0.00 0.00 0.00 0.00 0.00 0.00 0.00 0.00 0.00 0.00 0.00 0.00 0.00 0.00 0.00 0.00 0.00 0.00 0.00 0.00 0.00 0.00 0.00 0.00 0.00 0.00 0.00 0.00 0.00 0.00 0.00 0.00 0.00 0.00
0.00 0.00 0.00 0.00 0.00 0.00 0.00 0.00 0.00 0.00 0.00 0.00 0.00 0.00 0.00 0.00 0.00 0.00 0.00 0.00 0.00 0.00 0.00 0.00 0.00 0.00 0.00 0.00 0.00 0.00 0.00 0.00 0.00 0.00 0.00 0.00 0.00 0.00 0.00 0.00 0.00 0.00 0.00 0.00 0.00
0.00 0.00 0.00 0.00 0.00 0.00 0.00 0.00 0.00 0.00 0.00 0.00 0.00 0.00 0.00 0.00 0.00 0.00 0.00 0.00 0.00 0.00 0.00 0.00 0.00 0.00 0.00 0.00 0.00 0.00 0.00 0.00 0.00 0.00 0.00 0.00 0.00 0.00 0.00 0.00 0.00 0.00 0.00 0.00 0.00
0.00 0.00 0.00 0.00 0.00 0.00 0.00 0.00 0.00 0.00 0.00 0.00 0.00 0.00 0.00 0.00 0.00 0.00 0.00 0.00 0.00 0.00 0.00 0.00 0.00 0.00 0.00 0.00 0.00 0.00 0.00 0.00 0.00 0.00 0.00 0.00 0.00 0.00 0.00 0.00 0.00 0.00 0.00 0.00 0.00
0.00 0.00 0.00 0.00 0.00 0.00 0.00 0.00 0.00 0.00 0.00 0.00 0.00 0.00 0.00 0.00 0.00 0.00 0.00 0.00 0.00 0.00 0.00 0.00 0.00 0.00 0.00 0.00 0.00 0.00 0.00 0.00 0.00 0.00 0.00 0.00 0.00 0.00 0.00 0.00 0.00 0.00 0.00 0.00 0.00
0.00 0.00 0.00 0.00 0.00 0.00 0.00 0.00 0.00 0.00 0.00 0.00 0.00 0.00 0.00 0.00 0.00 0.00 0.00 0.00 0.00 0.00 0.00 0.00 0.00 0.00 0.00 0.00 0.00 0.00 0.00 0.00 0.00 0.00 0.00 0.00 0.00 0.00 0.00 0.00 0.00 0.00 0.00 0.00 0.00
0.00 0.00 0.00 0.00 0.00 0.00 0.00 0.00 0.00 0.00 0.00 0.00 0.00 0.00 0.00 0.00 0.00 0.00 0.00 0.00 0.00 0.00 0.00 0.00 0.00 0.00 0.00 0.00 0.00 0.00 0.00 0.00 0.00 0.00 0.00 0.00 0.00 0.00 0.00 0.00 0.00 0.00 0.00 0.00 0.00
0.00 0.00 0.00 0.00 0.00 0.00 0.00 0.00 0.00 0.00 0.00 0.00 0.00 0.00 0.00 0.00 0.00 0.00 0.00 0.00 0.00 0.00 0.00 0.00 0.00 0.00 0.00 0.00 0.00 0.00 0.00 0.00 0.00 0.00 0.00 0.00 0.00 0.00 0.00 0.00 0.00 0.00 0.00 0.00 0.00
0.00 0.00 0.00 0.00 0.00 0.00 0.00 0.00 0.00 0.00 0.00 0.00 0.00 0.00 0.00 0.00 0.00 0.00 0.00 0.00 0.00 0.00 0.00 0.00 0.00 0.00 0.00 0.00 0.00 0.00 0.00 0.00 0.00 0.00 0.00 0.00 0.00 0.00 0.00 0.00 0.00 0.00 0.00 0.00 0.00
0.00 0.00 0.00 0.00 0.00 0.00 0.00 0.00 0.00 0.00 0.00 0.00 0.00 0.00 0.00 0.00 0.00 0.00 0.00 0.00 0.00 0.00 0.00 0.00 0.00 0.00 0.00 0.00 0.01 0.00 0.00 0.00 0.00 0.00 0.00 0.00 0.00 0.00 0.00 0.00 0.00 0.00 0.00 0.00 0.00
0.00 0.00 0.00 0.00 0.00 0.00 0.00 0.00 0.00 0.00 0.00 0.00 0.00 0.00 0.00 0.00 0.00 0.00 0.00 0.00 0.00 0.00 0.01 0.01 0.00 0.00 0.00 0.01 0.01 0.01 0.00 0.00 0.00 0.00 0.00 0.00 0.00 0.00 0.00 0.00 0.00 0.00 0.00 0.00 0.00
0.00 0.00 0.00 0.00 0.00 0.00 0.00 0.00 0.00 0.00 0.00 0.00 0.00 0.00 0.00 0.00 0.00 0.00 0.00 0.00 0.00 0.00 0.00 0.01 0.02 0.00 0.00 0.01 0.00 0.01 0.00 0.00 0.00 0.00 0.00 0.00 0.00 0.00 0.00 0.00 0.00 0.00 0.00 0.00 0.00
0.00 0.00 0.00 0.00 0.00 0.00 0.00 0.00 0.00 0.00 0.00 0.00 0.00 0.00 0.00 0.00 0.00 0.00 0.00 0.00 0.00 0.00 0.00 0.00 0.04 0.00 0.01 0.13 0.05 0.11 0.05 0.01 0.00 0.00 0.00 0.00 0.00 0.00 0.00 0.00 0.00 0.00 0.00 0.00 0.00
0.00 0.00 0.00 0.00 0.00 0.00 0.00 0.00 0.00 0.00 0.00 0.00 0.00 0.00 0.00 0.00 0.00 0.00 0.00 0.00 0.00 0.00 0.00 0.00 0.02 0.00 0.01 0.11 0.04 0.02 0.07 0.02 0.00 0.00 0.00 0.00 0.00 0.00 0.00 0.00 0.00 0.00 0.00 0.00 0.00
0.00 0.00 0.00 0.00 0.00 0.00 0.00 0.00 0.00 0.00 0.00 0.00 0.00 0.00 0.00 0.00 0.00 0.00 0.00 0.00 0.00 0.00 0.00 0.00 0.01 0.04 0.01 0.04 0.03 0.00 0.01 0.00 0.01 0.00 0.00 0.00 0.00 0.00 0.01 0.01 0.00 0.00 0.01 0.04 0.00
0.00 0.00 0.00 0.00 0.00 0.00 0.00 0.00 0.00 0.00 0.00 0.00 0.00 0.00 0.00 0.00 0.00 0.00 0.00 0.00 0.00 0.00 0.00 0.00 0.01 0.03 0.04 0.03 0.01 0.03 0.04 0.01 0.03 0.02 0.00 0.00 0.00 0.01 0.01 0.07 0.17 0.30 0.27 0.38 0.03
0.00 0.00 0.00 0.00 0.00 0.00 0.00 0.00 0.00 0.00 0.00 0.00 0.00 0.00 0.00 0.00 0.00 0.00 0.00 0.00 0.00 0.00 0.00 0.00 0.00 0.00 0.00 0.00 0.00 0.02 0.07 0.01 0.02 0.02 0.03 0.00 0.00 0.00 0.06 0.05 0.16 0.14 0.08 0.03 0.01
0.00 0.00 0.00 0.00 0.00 0.00 0.00 0.00 0.00 0.00 0.00 0.00 0.00 0.00 0.00 0.00 0.00 0.00 0.00 0.00 0.00 0.00 0.00 0.00 0.00 0.00 0.00 0.00 0.00 0.01 0.09 0.04 0.00 0.00 0.02 0.00 0.00 0.00 0.00 0.11 0.25 0.17 0.05 0.05 0.00
0.00 0.00 0.00 0.00 0.00 0.00 0.00 0.00 0.00 0.00 0.00 0.00 0.00 0.00 0.00 0.00 0.00 0.00 0.00 0.00 0.00 0.00 0.00 0.00 0.01 0.01 0.00 0.00 0.01 0.12 0.12 0.20 0.17 0.07 0.02 0.01 0.01 0.02 0.02 0.04 0.32 0.81 0.46 0.12 0.02
MSLP
1019.67 1019.59 1019.23 1019.04 1018.79 1018.47 1018.14 1017.77 1017.32 1016.83 1016.43 1015.89 1015.54 1015.21 1014.74 1014.45 1013.45 1011.00 1010.91 1011.71 1010.99 1010.40 1010.40 1009.34 1008.25 1008.00 1007.96 1007.44 1006.72 1005.96 1005.25 1003.38 1002.92 1001.79 1000.34 999.32 998.36 998.05 998.72 999.02 998.82 998.79 999.18 999.92 1000.85
1019.72 1019.41 1019.17 1018.98 1018.73 1018.41 1017.92 1017.46 1016.92 1016.46 1016.11 1015.72 1015.32 1014.86 1014.44 1014.35 1013.26 1010.92 1011.78 1011.34 1010.92 1010.65 1009.60 1008.19 1007.55 1007.10 1006.95 1006.69 1006.45 1005.89 1004.34 1002.93 1003.01 1001.91 1000.52 999.53 998.76 998.58 998.84 998.95 998.87 999.00 999.20 999.84 1000.69
1019.86 1019.56 1019.28 1019.07 1018.60 1018.23 1017.97 1017.54 1016.89 1016.41 1016.04 1015.62 1015.05 1014.75 1014.41 1014.40 1012.29 1011.33 1011.55 1011.26 1010.98 1010.67 1009.84 1008.50 1007.67 1007.13 1006.54 1006.10 1005.69 1005.08 1003.43 1003.66 1002.60 1001.93 1001.09 1000.18 999.36 999.16 999.30 998.93 999.04 999.15 999.26 1000.04 1000.53
1020.14 1019.68 1019.36 1019.07 1018.67 1018.28 1017.88 1017.32 1016.86 1016.36 1015.76 1015.25 1014.81 1014.49 1013.91 1013.41 1011.55 1011.17 1011.22 1010.91 1010.52 1010.19 1009.09 1008.06 1007.53 1006.97 1006.27 1005.68 1005.28 1004.74 1003.78 1003.18 1002.61 1002.11 1001.36 1000.74 1000.13 999.60 999.82 999.52 999.23 999.05 999.02 999.27 999.87
1020.15 1019.99 1019.50 1018.97 1018.57 1018.14 1017.63 1017.14 1016.69 1015.99 1015.37 1014.95 1014.84 1014.53 1013.43 1011.73 1010.63 1010.34 1010.64 1010.05 1009.94 1009.04 1008.73 1008.38 1007.66 1007.10 1006.29 1005.59 1004.94 1004.17 1003.71 1003.13 1002.57 1002.06 1001.63 1001.22 1000.52 1000.31 999.92 999.78 999.68 999.31 999.11 999.25 999.27
1020.07 1019.89 1019.54 1019.01 1018.39 1017.92 1017.33 1016.90 1016.39 1015.69 1014.88 1014.80 1014.72 1014.76 1013.34 1011.23 1010.76 1010.30 1010.25 1009.96 1009.48 1008.84 1008.68 1008.32 1007.89 1007.43 1006.68 1005.91 1005.15 1004.57 1003.80 1002.98 1002.52 1001.86 1001.52 1001.07 1000.69 1000.71 999.68 1000.36 999.86 999.50 999.14 999.13 999.27
1019.82 1019.79 1019.55 1018.97 1018.22 1017.60 1016.92 1016.48 1016.07 1015.54 1015.00 1014.66 1014.66 1014.26 1012.27 1011.22 1010.67 1010.83 1010.73 1010.45 1010.15 1009.47 1008.97 1008.73 1008.47 1008.13 1007.03 1006.20 1005.10 1004.54 1004.01 1003.23 1002.65 1002.20 1001.74 1001.43 1000.17 999.64 999.82 999.99 999.38 999.16 999.13 999.02 998.90
1019.50 1019.46 1019.31 1018.78 1018.03 1017.32 1016.50 1016.11 1015.90 1015.43 1014.92 1014.83 1014.52 1013.59 1011.41 1011.33 1011.34 1011.06 1010.58 1010.17 1009.76 1009.43 1009.27 1008.93 1008.29 1007.93 1007.51 1006.85 1006.12 1005.53 1004.71 1003.11 1002.30 1001.67 1001.07 1001.46 998.57 999.51 999.42 999.18 998.52 998.12 998.04 998.05 998.04
1019.40 1019.15 1018.92 1018.51 1017.81 1016.92 1016.03 1015.74 1015.60 1015.17 1014.96 1014.71 1014.21 1012.43 1011.21 1011.63 1011.24 1011.10 1010.61 1010.14 1009.43 1009.08 1008.74 1008.21 1008.14 1007.61 1007.30 1007.00 1006.20 1004.96 1004.03 1003.02 1001.51 1001.30 1000.34 999.84 997.80 998.69 998.45 998.23 997.47 996.82 996.25 996.78 996.99
1019.28 1018.96 1018.72 1018.21 1017.43 1016.44 1015.72 1014.98 1014.73 1015.07 1014.82 1013.66 1012.33 1011.97 1011.62 1011.68 1011.52 1011.02 1010.10 1010.19 1009.33 1008.81 1007.90 1007.54 1007.36 1007.02 1007.26 1006.66 1005.01 1004.21 1003.72 1002.33 1001.26 1000.86 999.90 999.01 997.76 997.39 997.64 997.40 996.76 996.21 995.80 995.84 996.03
1019.17 1018.92 1018.57 1017.92 1017.21 1016.27 1015.61 1014.39 1014.95 1014.73 1013.12 1012.88 1012.48 1012.10 1011.98 1011.97 1011.14 1010.51 1010.07 1010.16 1009.28 1008.98 1007.82 1007.30 1006.67 1006.35 1006.04 1005.39 1004.44 1004.01 1003.30 1002.00 1000.91 1000.80 1000.16 999.09 998.50 997.42 996.91 996.81 996.25 995.89 995.77 995.79 995.44
1019.14 1018.92 1018.40 1017.84 1017.21 1016.41 1015.26 1014.45 1015.50 1015.79 1013.78 1012.69 1012.58 1012.35 1012.18 1012.30 1010.95 1010.50 1010.72 1010.36 1009.83 1009.11 1008.69 1008.05 1006.69 1006.48 1005.97 1005.25 1004.36 1003.50 1002.45 1001.18 1000.06 1000.16 1000.43 999.55 998.79 997.86 997.03 996.22 995.88 995.53 995.24 995.14 995.41
1019.17 1018.92 1018.34 1017.85 1017.31 1016.54 1015.69 1015.69 1015.62 1015.42 1013.86 1012.48 1012.09 1011.85 1011.95 1011.87 1011.04 1010.76 1010.97 1010.70 1010.22 1009.72 1009.19 1008.59 1007.74 1007.47 1006.75 1005.72 1004.65 1003.47 1002.93 1001.28 1000.68 1000.22 999.60 999.56 998.79 997.97 997.09 996.38 995.78 995.22 994.98 994.85 994.53
1019.18 1019.01 1018.46 1017.83 1017.57 1015.65 1015.46 1015.71 1015.67 1015.67 1013.59 1012.25 1011.80 1011.62 1011.55 1011.22 1010.43 1010.69 1010.60 1010.78 1010.23 1009.70 1009.33 1008.62 1008.05 1007.89 1007.13 1006.28 1005.90 1004.20 1003.50 1002.15 1001.19 1000.32 999.36 999.31 997.71 997.26 996.34 995.36 994.75 994.18 994.11 994.30 994.05
1019.15 1018.96 1018.38 1018.14 1017.07 1015.12 1015.97 1016.00 1015.72 1015.39 1013.24 1012.01 1011.24 1011.52 1011.24 1011.02 1010.95 1010.23 1010.38 1010.11 1009.80 1009.80 1010.22 1008.63 1008.57 1007.92 1006.97 1006.43 1006.14 1004.29 1003.48 1002.45 1001.49 1000.26 999.40 998.65 997.99 995.62 995.74 994.26 993.24 992.28 992.23 993.02 993.45
1019.07 1018.86 1018.30 1016.89 1016.59 1016.33 1016.22 1016.11 1015.61 1014.66 1012.11 1011.75 1011.21 1011.21 1011.14 1010.63 1010.54 1010.22 1010.19 1009.97 1009.26 1009.53 1009.70 1009.28 1009.17 1008.15 1006.72 1006.36 1006.26 1005.46 1004.06 1003.30 1002.13 1000.70 998.85 997.86 997.24 994.62 994.77 993.50 991.94 991.17 991.06 991.76 992.41
1018.92 1018.78 1018.40 1017.23 1016.15 1016.25 1016.46 1015.66 1014.70 1013.08 1011.60 1011.33 1011.36 1011.45 1011.27 1010.56 1010.55 1010.72 1010.46 1009.93 1009.93 1010.86 1010.60 1009.90 1008.40 1007.73 1006.63 1006.78 1006.38 1006.13 1005.42 1003.35 1002.11 1000.23 998.06 997.41 996.52 994.54 993.58 992.84 991.76 991.09 991.61 992.57 993.36
1018.65 1018.57 1017.51 1016.74 1016.71 1016.59 1015.83 1015.02 1013.84 1011.81 1011.47 1012.05 1011.91 1011.68 1011.07 1010.90 1011.12 1011.16 1010.93 1010.81 1010.86 1011.73 1011.26 1010.05 1007.78 1008.13 1007.53 1007.83 1006.38 1006.10 1004.93 1003.25 1001.59 999.88 998.43 996.88 995.52 993.21 993.61 992.10 991.77 991.18 992.26 993.14 994.20
1018.64 1017.67 1016.84 1017.07 1017.05 1016.73 1015.51 1014.33 1012.13 1011.76 1012.63 1012.65 1012.24 1011.45 1011.12 1011.38 1011.75 1011.60 1011.61 1011.65 1011.81 1011.98 1012.59 1011.15 1007.48 1008.64 1007.43 1006.40 1006.27 1004.04 1002.98 1002.80 1001.78 1000.28 998.42 996.06 994.44 993.14 992.09 991.53 991.38 991.85 993.21 994.10 994.72
1018.11 1016.76 1016.11 1016.94 1016.99 1016.68 1015.34 1013.29 1012.42 1012.81 1013.05 1012.89 1012.60 1012.45 1012.02 1012.04 1012.39 1012.36 1012.06 1012.50 1012.21 1012.06 1012.54 1011.78 1009.34 1008.34 1007.04 1006.33 1004.34 1004.52 1003.05 1002.26 1001.42 1000.21 998.52 996.61 993.97 991.89 991.35 991.00 991.04 991.91 993.27 994.38 995.66
1018.14 1016.43 1016.85 1016.76 1016.95 1016.16 1014.72 1012.75 1012.85 1013.38 1013.46 1013.29 1013.00 1012.92 1012.89 1012.88 1012.94 1012.79 1012.43 1012.27 1011.92 1011.53 1011.64 1011.52 1011.87 1008.41 1008.32 1007.18 1006.30 1005.16 1004.14 1002.20 1001.41 1000.15 998.68 997.03 994.17 991.59 991.02 990.66 991.01 992.05 993.36 994.56 994.12
1016.93 1016.22 1016.95 1016.83 1016.10 1014.95 1014.11 1013.31 1013.84 1013.38 1013.72 1013.73 1013.85 1013.64 1013.38 1013.26 1013.14 1012.64 1012.26 1011.78 1011.49 1011.66 1011.53 1011.82 1011.92 1010.21 1008.51 1007.38 1006.31 1004.68 1004.50 1003.02 1000.95 1000.14 998.34 996.98 994.35 991.94 991.31 990.88 991.57 992.74 993.72 994.89 996.61
1016.37 1015.83 1017.09 1016.72 1015.67 1014.59 1013.97 1013.96 1014.03 1013.58 1013.47 1013.52 1013.42 1013.43 1013.58 1013.60 1013.18 1012.57 1012.16 1011.57 1011.63 1011.83 1011.69 1012.09 1011.74 1010.43 1007.74 1006.76 1005.07 1004.52 1003.76 1003.35 1002.24 1000.16 998.46 997.12 994.41 993.42 992.73 993.09 992.32 993.39 995.28 996.93 996.25
1016.26 1015.86 1016.26 1016.71 1015.55 1014.95 1013.91 1014.05 1013.93 1014.12 1013.85 1013.89 1013.69 1013.72 1013.76 1013.40 1013.16 1012.66 1012.09 1011.42 1011.21 1011.34 1011.92 1012.04 1011.75 1011.87 1010.51 1009.14 1007.32 1005.38 1004.30 1003.50 1002.53 1000.85 998.45 996.94 995.57 994.20 994.49 995.23 996.46 996.23 997.57 998.77 996.16
1016.75 1015.83 1014.96 1015.78 1015.66 1014.91 1014.37 1014.10 1013.90 1013.95 1014.30 1014.02 1013.66 1013.72 1013.41 1013.29 1013.22 1012.82 1012.29 1011.53 1011.28 1011.41 1011.53 1011.45 1010.96 1010.80 1009.54 1008.11 1006.36 1005.13 1003.72 1003.19 1001.63 1000.96 1000.63 997.85 996.45 996.17 996.47 998.54 999.00 997.86 998.12 998.56 998.48
1016.99 1015.62 1015.42 1015.12 1014.82 1014.85 1014.55 1014.26 1013.85 1013.72 1013.80 1013.87 1013.86 1013.65 1013.49 1013.34 1013.34 1013.05 1012.78 1012.41 1011.87 1011.46 1011.57 1011.18 1010.38 1009.83 1008.21 1007.09 1005.48 1004.42 1003.96 1003.22 1002.00 1001.19 1000.71 999.58 998.27 998.48 997.69 998.91 1000.34 1001.26 999.63 998.65 999.22
1016.45 1015.98 1016.09 1014.90 1014.69 1014.72 1014.17 1014.37 1014.10 1014.13 1013.99 1014.19 1014.14 1014.10 1013.95 1013.86 1013.91 1013.70 1013.37 1012.54 1012.01 1011.47 1010.52 1010.41 1010.10 1009.59 1007.68 1006.53 1005.47 1004.72 1004.79 1003.55 1002.16 1002.63 1002.31 1001.07 1000.24 1000.55 1000.50 1000.97 1002.38 1001.41 999.79 999.21 1000.50
Thickness
5616 5616 5618 5620 5621 5623 5625 5627 5630 5633 5635 5638 5641 5643 5648 5649 5657 5679 5679 5672 5676 5680 5680 5686 5694 5694 5694 5691 5701 5707 5684 5691 5699 5709 5729 5761 5762 5774 5768 5758 5769 5771 5770 5772 5769
5609 5611 5612 5614 5616 5617 5620 5623 5627 5630 5632 5634 5636 5639 5641 5641 5652 5671 5661 5663 5666 5669 5677 5683 5681 5687 5680 5683 5685 5680 5682 5696 5709 5719 5725 5745 5755 5754 5742 5746 5752 5754 5768 5772 5766
5602 5604 5605 5606 5610 5612 5613 5616 5620 5623 5625 5627 5630 5631 5632 5631 5651 5654 5652 5654 5655 5658 5664 5673 5677 5675 5669 5676 5678 5680 5682 5690 5705 5714 5720 5724 5735 5744 5731 5731 5741 5744 5749 5758 5757
5590 5595 5597 5600 5602 5604 5606 5610 5613 5616 5619 5621 5622 5623 5627 5630 5638 5644 5644 5647 5650 5650 5657 5660 5660 5657 5659 5659 5672 5659 5682 5687 5696 5704 5706 5706 5721 5722 5723 5732 5745 5749 5757 5752 5751
5582 5583 5588 5593 5595 5597 5599 5602 5606 5610 5612 5615 5613 5614 5623 5634 5635 5641 5638 5642 5641 5647 5644 5642 5642 5645 5644 5654 5660 5660 5668 5677 5686 5690 5696 5700 5700 5706 5715 5730 5736 5741 5747 5744 5749
5574 5575 5579 5584 5589 5590 5593 5596 5599 5604 5609 5606 5604 5603 5615 5621 5630 5633 5633 5633 5636 5638 5635 5636 5633 5638 5638 5641 5643 5653 5656 5664 5671 5677 5683 5682 5687 5690 5717 5716 5721 5726 5735 5739 5740
5568 5568 5570 5575 5580 5584 5588 5591 5593 5596 5597 5598 5596 5599 5613 5614 5623 5620 5620 5620 5622 5625 5622 5627 5627 5621 5630 5626 5645 5643 5633 5646 5653 5661 5663 5671 5671 5685 5706 5707 5710 5716 5723 5732 5736
5559 5561 5562 5567 5572 5576 5582 5585 5585 5587 5589 5587 5590 5597 5608 5611 5610 5610 5613 5612 5618 5619 5616 5619 5624 5619 5613 5619 5618 5612 5616 5615 5646 5653 5662 5653 5659 5684 5699 5693 5702 5713 5720 5726 5733
5550 5552 5555 5558 5564 5571 5577 5579 5579 5580 5580 5581 5587 5599 5598 5602 5599 5601 5605 5601 5607 5609 5611 5617 5614 5609 5606 5594 5595 5612 5598 5608 5628 5647 5652 5654 5662 5678 5690 5690 5699 5713 5724 5724 5728
5541 5544 5546 5552 5559 5566 5571 5576 5575 5573 5574 5582 5593 5589 5591 5582 5588 5592 5601 5596 5596 5599 5604 5606 5606 5598 5592 5589 5585 5597 5596 5612 5614 5633 5640 5646 5656 5677 5679 5683 5693 5707 5717 5721 5726
5532 5535 5538 5545 5551 5558 5562 5572 5572 5572 5583 5578 5578 5576 5578 5578 5586 5586 5591 5584 5589 5586 5587 5598 5595 5587 5590 5596 5604 5600 5598 5603 5621 5631 5626 5631 5632 5659 5674 5676 5686 5697 5703 5711 5721
5523 5526 5531 5536 5541 5547 5556 5562 5552 5548 5565 5575 5570 5570 5570 5568 5568 5573 5576 5568 5568 5567 5575 5577 5581 5584 5586 5589 5592 5595 5595 5604 5623 5627 5613 5616 5619 5640 5653 5668 5680 5689 5697 5704 5710
5512 5516 5522 5526 5531 5539 5543 5540 5541 5543 5555 5566 5567 5565 5563 5562 5558 5560 5562 5558 5555 5554 5558 5555 5564 5564 5562 5566 5570 5580 5575 5593 5597 5610 5619 5607 5602 5626 5645 5653 5666 5682 5692 5699 5708
5501 5505 5511 5518 5523 5537 5535 5532 5533 5533 5554 5555 5555 5557 5557 5558 5554 5557 5556 5547 5546 5544 5547 5548 5553 5539 5539 5542 5543 5541 5573 5580 5582 5588 5582 5608 5584 5615 5638 5650 5663 5680 5687 5690 5701
5492 5495 5502 5505 5516 5533 5523 5522 5525 5529 5550 5547 5550 5553 5551 5546 5542 5546 5549 5542 5534 5533 5525 5537 5522 5517 5518 5520 5521 5530 5554 5558 5567 5574 5587 5593 5587 5621 5637 5643 5663 5684 5692 5690 5694
5481 5485 5492 5506 5509 5510 5511 5513 5518 5529 5540 5539 5544 5539 5537 5541 5538 5540 5534 5535 5536 5525 5523 5515 5508 5504 5507 5505 5500 5509 5520 5529 5544 5559 5560 5588 5595 5616 5624 5646 5671 5693 5696 5693 5694
5473 5476 5482 5491 5505 5502 5500 5509 5522 5528 5542 5535 5531 5531 5528 5532 5528 5523 5520 5518 5504 5479 5483 5493 5501 5502 5505 5486 5495 5492 5494 5506 5516 5535 5553 5597 5589 5612 5638 5655 5670 5685 5678 5676 5676
5467 5469 5478 5485 5487 5490 5500 5508 5510 5536 5533 5524 5522 5521 5523 5525 5518 5512 5508 5500 5500 5474 5468 5469 5489 5488 5493 5477 5484 5474 5492 5503 5506 5535 5555 5591 5581 5617 5638 5661 5669 5677 5666 5669 5665
5457 5468 5476 5474 5476 5481 5496 5501 5526 5528 5512 5508 5514 5518 5518 5515 5507 5502 5494 5486 5477 5469 5440 5447 5485 5484 5490 5495 5490 5503 5506 5519 5525 5545 5554 5589 5607 5627 5647 5658 5667 5658 5652 5651 5654
5454 5469 5476 5467 5468 5473 5489 5505 5513 5507 5503 5503 5500 5505 5501 5500 5492 5487 5483 5473 5466 5467 5456 5457 5459 5484 5494 5495 5509 5500 5517 5512 5525 5520 5530 5560 5595 5619 5638 5647 5661 5650 5646 5642 5642
5443 5465 5457 5460 5461 5472 5481 5504 5502 5496 5493 5493 5495 5492 5491 5485 5481 5476 5473 5468 5466 5466 5464 5462 5444 5477 5478 5461 5466 5479 5492 5521 5529 5540 5537 5547 5580 5642 5652 5652 5653 5649 5644 5641 5631
5448 5457 5446 5450 5465 5479 5483 5491 5467 5488 5484 5483 5480 5479 5479 5478 5473 5474 5466 5465 5468 5460 5457 5458 5440 5447 5473 5473 5489 5503 5489 5505 5530 5532 5556 5564 5579 5632 5640 5647 5648 5645 5641 5634 5622
5444 5454 5436 5444 5454 5472 5479 5476 5475 5479 5479 5478 5478 5478 5474 5468 5466 5468 5464 5468 5461 5454 5453 5451 5444 5439 5480 5490 5500 5501 5507 5505 5512 5533 5549 5551 5580 5619 5633 5619 5647 5636 5624 5610 5610
5436 5432 5438 5434 5451 5456 5471 5468 5468 5467 5468 5469 5469 5468 5464 5464 5465 5458 5458 5464 5463 5457 5446 5450 5443 5428 5428 5447 5476 5487 5498 5498 5509 5518 5549 5565 5586 5609 5613 5597 5589 5599 5592 5581 5593
5420 5427 5444 5426 5431 5448 5459 5462 5461 5460 5459 5461 5463 5460 5461 5455 5451 5449 5452 5455 5456 5449 5450 5453 5445 5448 5465 5476 5493 5497 5506 5505 5521 5533 5520 5563 5582 5596 5588 5566 5565 5596 5595 5590 5590
5401 5423 5431 5436 5445 5441 5439 5450 5455 5459 5458 5453 5453 5456 5456 5450 5444 5439 5440 5438 5439 5445 5443 5452 5445 5459 5475 5486 5502 5505 5502 5501 5522 5533 5529 5549 5562 5558 5577 5559 5553 5542 5568 5580 5577
5405 5412 5413 5432 5436 5434 5444 5440 5447 5449 5451 5447 5444 5442 5439 5438 5434 5432 5430 5434 5435 5437 5448 5453 5452 5454 5465 5489 5498 5501 5477 5492 5491 5514 5524 5536 5544 5540 5545 5542 5535 5536 5537 5558 5557